User: anonymous
Location: Caltech
(34.1382°N, 118.1253°W)
Time: 14:51:04
(UTC-07:00)
Language:

Uribyol 2 - Orbit

View from above orbital plane
View from above orbital plane
View from above satellite
View from above satellite

Ground track
Ground track

The orbit data is extracted from the following two-line orbital elements,

1 22828U 93061F   14261.93526957  .00000181  00000-0  86885-4 0  7033
2 22828 098.6570 207.0310 0009517 353.1421 006.9630 14.30343329 62647
Epoch (UTC): 18 September 2014 22:26:47
Eccentricity: 0.0009517
inclination: 98.6570°
perigee height: 784 km
apogee height: 797 km
right ascension of ascending node: 207.0310°
argument of perigee: 353.1421°
revolutions per day: 14.30343329
mean anomaly at epoch: 6.9630°
orbit number at epoch: 6264

The dashed part of the orbit path shows where the satellite is in the earth's shadow,  

DLR